Погода в Белой Берёзке

Россия / Брянская область     52°22′57″N   33°28′45″E
темп.,
°C
ветер,
м/с
пор.,
м/с
влажн.,
%
обл.,
%
осадки,
мм/ч
давл.,
гПа
погр.,
м
18 апреля, вс
вс1800:00+6юз4789100 2.8 1017798
03:00+5ююз5793100 4.6 1016811
06:00+5ю4892100 1.9 1016608
09:00+5юв4690100 2.1 1017707
12:00+7юв467780 0.1 1017893
15:00+10вюв2459100 0.2 10171200
18:00+10всв246230 0.1 10171039
21:00+6ссв378313 0.4 1019159
19 апреля, пн
пн1900:00+5ссв410915 0.0 1019263
03:00+4с499753 0.0 1019249
06:00+6ссв5884100 0.0 1019673
09:00+7ссв5988100 0.0 1019731
12:00+8ссв4886100 0.1 10191048
15:00+10св677298 0.4 10181158
18:00+8св5883100 0.3 1018820
21:00+5св5109499 0.3 1019518
20 апреля, вт
вт2000:00+4св5997100 0.0 1018426
03:00+4св5997100 0.0 1017424
06:00+4св5895100 0.0 1015377
09:00+5всв579496 0.0 1014344
12:00+11св4665100 0.0 10111133
15:00+12всв7972100 0.4 10081255
18:00+9св81282100 0.3 1006961
21:00+5св81393100 2.4 1003856
21 апреля, ср
ср2100:00+4с81496100 1.8 999813
03:00+3ссз91596100 2.8 996569
06:00+3зсз91496100 0.8 998659
09:00+3з81495100 1.1 1002801
12:00+5з71287100 0.3 10061146
15:00+8зюз8117383 0.4 10091286
18:00+7юз51077100 0.2 1012472
21:00+6юз4980100 0.3 1015291
22 апреля, чт
чт2200:00+6ююз4876100 0.0 1016159
03:00+5ююз497956 0.0 1018192
06:00+5ю3887100 0.0 1019164
09:00+8ю587897 0.1 1020444
12:00+12ююз676687 0.2 10211228
15:00+14ююз565561 0.8 10211562
18:00+13ю466144 0.5 1021393
21:00+9ююз34815 0.6 102352